This demonstration page uses our WeatherBlox Daily Observations layout. Learn more.

Left ArrowRight Arrow

Hourly Observations for August 25, 2020

Temp ( °F °C ) Dew Point ( °F °C ) Humidity (%) Winds ( mph kmh ) Pressure ( in mb ) Visibility ( mi km ) Precip ( " mm )
12:15 am 00:15 Clear 76 24.3 61 15.9 60 60 S 9 15 29.89 1012 10 16.0934 0 0
12:35 am 00:35 Clear 75 24.1 61 15.9 60 60 SSE 8 13 29.88 1012 10 16.0934 0 0
12:55 am 00:55 Clear 74 23.6 61 16 63 63 S 9 15 29.89 1012 10 16.0934 0 0
1:15 am 01:15 Clear 74 23.2 61 16 64 64 S 9 15 29.89 1012 10 16.0934 0 0
1:35 am 01:35 Clear 73 23 61 16.1 65 65 S 9 15 29.89 1012 10 16.0934 0 0
1:55 am 01:55 Clear 73 23 61 16 65 65 S 9 15 29.89 1012 10 16.0934 0 0
2:15 am 02:15 Clear 73 23 61 16 65 65 S 10 17 29.89 1012 10 16.0934 0 0
2:35 am 02:35 Clear 73 22.5 61 16 67 67 S 10 17 29.89 1012 10 16.0934 0 0
2:55 am 02:55 Clear 72 22.4 61 16 67 67 S 9 15 29.89 1012 10 16.0934 0 0
3:15 am 03:15 Clear 72 22.1 61 16 68 68 S 10 17 29.89 1012 10 16.0934 0 0
3:35 am 03:35 Clear 72 22.1 61 16 68 68 S 8 13 29.89 1012 10 16.0934 0 0
3:55 am 03:55 Clear 71 21.5 61 16 71 71 SSW 9 15 29.89 1012 10 16.0934 0 0
4:15 am 04:15 Clear 71 21.4 61 16 71 71 S 10 17 29.9 1012 10 16.0934 0 0
4:35 am 04:35 Clear 71 21.5 60 15.8 70 70 S 9 15 29.89 1012 10 16.0934 0 0
4:55 am 04:55 Clear 70 21.2 60 15.8 71 71 S 8 13 29.9 1012 10 16.0934 0 0
5:15 am 05:15 Clear 69 20.8 60 15.7 73 73 S 7 11 29.9 1013 10 16.0934 0 0
5:35 am 05:35 Clear 68 20 60 15.7 76 76 SSW 7 11 29.92 1013 10 16.0934 0 0
5:55 am 05:55 Clear 68 20 61 15.9 77 77 S 6 9 29.92 1013 10 16.0934 0 0
6:15 am 06:15 Clear 66 18.8 61 16 84 84 S 6 9 29.93 1013 10 16.0934 0 0
6:35 am 06:35 Clear 65 18.6 60 15.7 83 83 S 6 9 29.93 1014 10 16.0934 0 0
6:55 am 06:55 Clear 65 18.5 60 15.7 84 84 S 5 7 29.93 1014 10 16.0934 0 0
7:15 am 07:15 Sunny 65 18.5 60 15.7 84 84 S 7 11 29.94 1014 10 16.0934 0 0
7:35 am 07:35 Sunny 66 19 60 15.8 82 82 S 7 11 29.95 1014 10 16.0934 0 0
7:55 am 07:55 Sunny 67 19.3 60 15.8 80 80 S 7 11 29.95 1014 10 16.0934 0 0
8:15 am 08:15 Sunny 68 19.9 61 16.1 79 79 S 6 9 29.95 1014 10 16.0934 0 0
8:35 am 08:35 Sunny 69 20.8 61 16.1 75 75 S 8 13 29.94 1014 10 16.0934 0 0
8:55 am 08:55 Sunny 71 21.9 61 16.3 71 71 S 7 11 29.93 1014 10 16.0934 0 0
9:15 am 09:15 Sunny 73 22.8 61 16.2 66 66 S 12 19 29.92 1013 10 16.0934 0 0
9:35 am 09:35 Sunny 74 23.5 61 16.2 64 64 S 12 19 29.91 1013 10 16.0934 0 0
9:55 am 09:55 Sunny 76 24.6 61 15.9 58 58 S 12 19 29.9 1013 10 16.0934 0 0
10:15 am 10:15 Sunny 78 25.8 60 15.4 53 53 S 15 24 29.88 1012 10 16.0934 0 0
10:35 am 10:35 Sunny 80 26.9 60 15.7 50 50 S 13 20 29.88 1012 10 16.0934 0 0
10:55 am 10:55 Sunny 82 27.5 60 15.4 48 48 SSW 15 24 29.88 1012 10 16.0934 0 0
11:15 am 11:15 Sunny 83 28.5 59 15.2 44 44 S 16 26 29.87 1011 10 16.0934 0 0
11:35 am 11:35 Sunny 85 29.5 58 14.5 40 40 SSW 18 30 29.85 1011 10 16.0934 0 0
11:55 am 11:55 Sunny 87 30.4 59 15.1 39 39 SSW 13 20 29.85 1011 10 16.0934 0 0
12:15 pm 12:15 Sunny 88 31.1 57 14.1 35 35 SSW 18 30 29.84 1010 10 16.0934 0 0
12:35 pm 12:35 Sunny 89 31.9 58 14.3 34 34 SSW 16 26 29.82 1010 10 16.0934 0 0
12:55 pm 12:55 Sunny 91 32.8 58 14.3 33 33 SW 14 22 29.82 1010 10 16.0934 0 0
1:15 pm 13:15 Sunny 92 33.4 58 14.4 32 32 SW 16 26 29.8 1009 10 16.0934 0 0
1:35 pm 13:35 Sunny 92 33.6 58 14.3 31 31 S 18 30 29.79 1009 10 16.0934 0 0
1:55 pm 13:55 Sunny 93 34.1 57 13.7 29 29 SSW 17 28 29.79 1009 10 16.0934 0 0
2:15 pm 14:15 Sunny 94 34.5 55 12.7 27 27 SSW 20 31 29.78 1009 10 16.0934 0 0
2:35 pm 14:35 Sunny 94 34.7 55 12.6 26 26 SSW 17 28 29.78 1009 10 16.0934 0 0
2:55 pm 14:55 Sunny 95 35.1 53 11.8 24 24 SSW 22 35 29.77 1008 10 16.0934 0 0
3:15 pm 15:15 Sunny 95 35.2 55 12.8 26 26 S 12 19 29.77 1008 10 16.0934 0 0
3:35 pm 15:35 Sunny 96 35.3 55 12.5 25 25 S 13 20 29.77 1008 10 16.0934 0 0
3:55 pm 15:55 Sunny 95 35 53 11.6 24 24 S 15 24 29.75 1007 10 16.0934 0 0
4:15 pm 16:15 Sunny 95 35 53 11.4 24 24 S 14 22 29.75 1007 10 16.0934 0 0
4:35 pm 16:35 Sunny 95 34.8 52 11.1 24 24 S 17 28 29.74 1007 10 16.0934 0 0
4:55 pm 16:55 Sunny 94 34.3 54 12 26 26 S 12 19 29.75 1007 10 16.0934 0 0
5:15 pm 17:15 Sunny 93 34 52 11.1 25 25 S 14 22 29.74 1007 10 16.0934 0 0
5:35 pm 17:35 Sunny 92 33.5 52 11.2 26 26 S 12 19 29.74 1007 10 16.0934 0 0
5:55 pm 17:55 Sunny 92 33.2 51 10.7 25 25 S 13 20 29.74 1007 10 16.0934 0 0
6:15 pm 18:15 Sunny 91 32.6 53 11.6 28 28 S 12 19 29.75 1007 10 16.0934 0 0
6:35 pm 18:35 Sunny 89 31.7 53 11.9 30 30 S 9 15 29.74 1007 10 16.0934 0 0
6:55 pm 18:55 Sunny 88 30.9 55 12.7 33 33 SSE 7 11 29.75 1007 10 16.0934 0 0
7:15 pm 19:15 Sunny 86 30 56 13.2 36 36 SSE 9 15 29.76 1008 10 16.0934 0 0
7:35 pm 19:35 Sunny 84 29.1 55 12.8 37 37 SSE 8 13 29.76 1008 10 16.0934 0 0
7:55 pm 19:55 Sunny 82 27.9 56 13.1 40 40 SSE 7 11 29.77 1008 10 16.0934 0 0
8:15 pm 20:15 Sunny 80 26.6 56 13.2 44 44 SSE 7 11 29.78 1009 10 16.0934 0 0
8:35 pm 20:35 Clear 79 26 55 13 45 45 SSE 9 15 29.79 1009 10 16.0934 0 0
8:55 pm 20:55 Clear 77 25 56 13.1 48 48 SSE 7 11 29.8 1009 10 16.0934 0 0
9:15 pm 21:15 Clear 75 23.8 56 13.5 53 53 SSE 7 11 29.82 1010 10 16.0934 0 0
9:35 pm 21:35 Clear 74 23.5 56 13.3 53 53 SSE 7 11 29.82 1010 10 16.0934 0 0
9:55 pm 21:55 Clear 75 23.8 56 13.1 51 51 SSE 9 15 29.83 1010 10 16.0934 0 0
10:15 pm 22:15 Clear 74 23.6 55 13 52 52 SSE 8 13 29.83 1010 10 16.0934 0 0
10:35 pm 22:35 Clear 73 22.9 56 13.1 54 54 S 8 13 29.83 1010 10 16.0934 0 0
10:55 pm 22:55 Clear 72 22.4 56 13.1 56 56 S 7 11 29.85 1011 10 16.0934 0 0
11:15 pm 23:15 Clear 71 21.5 56 13.4 60 60 S 8 13 29.86 1011 10 16.0934 0 0
11:35 pm 23:35 Clear 70 21.1 56 13.5 62 62 S 8 13 29.86 1011 10 16.0934 0 0
11:55 pm 23:55 Clear 70 21 56 13.5 62 62 S 8 13 29.86 1011 10 16.0934 0 0

Powered by AerisWeather